M I D A S
Marine Information and Data Acquisition System
Tripno 1239 of the Zeeleeuw from 2007-03-26 07:10:47 to 2007-03-26 15:19:56
Back to CruiseResearch ActivitiesStationsMapUnderway DataData graphs

EquipmentUnitsComments
TimeDGPSUTC
LatitudeDGPSDM.mWGS84
LongitudeDGPSDM.mWGS84
SpeedMeteo Stationm/sRelative wind speed
DirectionMeteo StationdegRelative wind direction
TemperatureMeteo Stationdeg CelciusAir temperature
PressureMeteo StationPaAtmospheric pressure
HumidityMeteo Station%Relative humidity
Missing or incorrect values are displayed as -999
Metereological data collected by the RV Zeeleeuw from 2007-03-26 06:50:44 to 2007-03-26 15:31:24
Time Latitude Longitude Speed Direction Temperature Pressure Humidity
2007-03-26 06:51 51°13.602 2°56.06 2.7 321 6.6 101910 81
2007-03-26 06:52 51°13.625 2°55.944 0.8 253 6.6 101910 81
2007-03-26 06:53 51°13.679 2°55.839 3.6 247 6.7 101910 81
2007-03-26 06:54 51°13.741 2°55.743 0.8 265 6.7 101910 81
2007-03-26 06:55 51°13.765 2°55.708 4.4 331 6.7 101910 81
2007-03-26 06:56 51°13.761 2°55.672 2.3 350 6.7 101910 80
2007-03-26 06:57 51°13.792 2°55.675 4.3 18 6.7 101900 80
2007-03-26 06:58 51°13.878 2°55.61 4.4 355 6.7 101910 80
2007-03-26 06:59 51°13.998 2°55.516 2.9 2 6.8 101900 80
2007-03-26 07:00 51°14.136 2°55.416 5.9 351 6.8 101900 80
2007-03-26 07:01 51°14.286 2°55.223 4.1 358 6.8 101900 80
2007-03-26 07:02 51°14.419 2°54.999 4.9 358 6.9 101900 80
2007-03-26 07:03 51°14.621 2°54.86 8.1 355 7 101890 80
2007-03-26 07:04 51°14.846 2°54.819 9.7 359 7.2 101880 80
2007-03-26 07:05 51°15.07 2°54.75 10 359 7.3 101880 80
2007-03-26 07:06 51°15.293 2°54.675 9.9 356 7.4 101880 80
2007-03-26 07:07 51°15.515 2°54.596 10.1 357 7.4 101880 80
2007-03-26 07:08 51°15.738 2°54.525 11.2 357 7.5 101890 81
2007-03-26 07:09 51°15.942 2°54.466 10.9 359 7.5 101880 81
2007-03-26 07:10 51°16.077 2°54.437 8.6 9 7.5 101890 81
2007-03-26 07:11 51°16.168 2°54.414 7.2 16 7.5 101900 81
2007-03-26 07:12 51°16.215 2°54.366 6.4 31 7.6 101910 81
2007-03-26 07:13 51°16.235 2°54.349 7.5 27 7.6 101900 81
2007-03-26 07:14 51°16.24 2°54.348 7.7 29 7.7 101910 81
2007-03-26 07:15 51°16.245 2°54.348 7.8 30 7.7 101900 81
2007-03-26 07:16 51°16.25 2°54.346 6.2 31 7.7 101910 80
2007-03-26 07:17 51°16.254 2°54.344 7.6 33 7.8 101910 80
2007-03-26 07:18 51°16.26 2°54.342 7.2 29 7.8 101910 81
2007-03-26 07:19 51°16.265 2°54.34 7.9 29 7.8 101910 81
2007-03-26 07:20 51°16.27 2°54.337 7.6 28 7.8 101910 81
2007-03-26 07:21 51°16.275 2°54.336 8.2 26 7.9 101910 81
2007-03-26 07:22 51°16.279 2°54.334 7.9 24 7.8 101900 80
2007-03-26 07:23 51°16.283 2°54.331 7.5 29 7.9 101910 80
2007-03-26 07:24 51°16.316 2°54.301 6.8 22 7.9 101900 80
2007-03-26 07:25 51°16.413 2°54.102 5.6 15 7.9 101910 80
2007-03-26 07:26 51°16.528 2°53.809 5.6 9 7.9 101910 80
2007-03-26 07:27 51°16.649 2°53.506 5.5 8 7.9 101910 80
2007-03-26 07:28 51°16.772 2°53.203 5.5 7 8 101920 80
2007-03-26 07:29 51°16.917 2°52.926 6.3 13 8 101900 80
2007-03-26 07:30 51°17.07 2°52.652 7.7 9 8 101910 80
2007-03-26 07:31 51°17.241 2°52.406 5.9 7 8 101890 80
2007-03-26 07:32 51°17.422 2°52.174 8 1 8.1 101910 80
2007-03-26 07:33 51°17.602 2°51.943 8 359 8.1 101900 81
2007-03-26 07:34 51°17.783 2°51.714 7 2 8 101910 82
2007-03-26 07:35 51°17.963 2°51.483 8 1 8 101910 82
2007-03-26 07:36 51°18.137 2°51.255 6.5 8 8 101910 82
2007-03-26 07:37 51°18.264 2°51.111 7.7 9 8 101920 82
2007-03-26 07:38 51°18.367 2°51.032 7 7 8.1 101930 82
2007-03-26 07:39 51°18.446 2°51.023 7.9 10 8.1 101920 82
2007-03-26 07:40 51°18.491 2°51.022 6.1 4 8.1 101920 82
2007-03-26 07:41 51°18.499 2°51.014 6.7 14 8.1 101920 82
2007-03-26 07:42 51°18.501 2°51.007 7 28 8.2 101920 82
2007-03-26 07:43 51°18.503 2°51.003 6.6 32 8.1 101930 81
2007-03-26 07:44 51°18.505 2°50.999 8.2 38 8.2 101930 81
2007-03-26 07:45 51°18.508 2°50.994 6.6 33 8.2 101930 81
2007-03-26 07:46 51°18.512 2°50.986 6.9 37 8.2 101930 81
2007-03-26 07:47 51°18.516 2°50.975 7.6 35 8.2 101920 81
2007-03-26 07:48 51°18.522 2°50.964 6.8 33 8.2 101920 81
2007-03-26 07:49 51°18.528 2°50.953 7.3 29 8.3 101930 81
2007-03-26 07:50 51°18.534 2°50.941 8.1 26 8.3 101930 81
2007-03-26 07:51 51°18.54 2°50.929 7.8 27 8.3 101930 81
2007-03-26 07:52 51°18.545 2°50.918 7.2 27 8.3 101930 81
2007-03-26 07:53 51°18.572 2°50.875 6.2 20 8.3 101940 81
2007-03-26 07:54 51°18.698 2°50.875 10.4 347 8.3 101930 81
2007-03-26 07:55 51°18.868 2°51.04 13.7 342 8.2 101890 81
2007-03-26 07:56 51°19.053 2°51.256 13.8 339 8.2 101890 81
2007-03-26 07:57 51°19.215 2°51.515 15.3 337 8.3 101900 81
2007-03-26 07:58 51°19.346 2°51.81 14.3 331 8.3 101910 81
2007-03-26 07:59 51°19.41 2°52.154 16.3 329 8.3 101900 81
2007-03-26 08:00 51°19.471 2°52.497 16.3 330 8.3 101910 80
2007-03-26 08:01 51°19.536 2°52.839 15.9 329 8.3 101890 80
2007-03-26 08:02 51°19.602 2°53.182 15 329 8.4 101890 80
2007-03-26 08:03 51°19.669 2°53.523 15.7 330 8.3 101890 80
2007-03-26 08:04 51°19.734 2°53.865 16.3 332 8.3 101900 79
2007-03-26 08:05 51°19.801 2°54.207 15.3 329 8.4 101900 79
2007-03-26 08:06 51°19.868 2°54.551 16.2 331 8.3 101900 79
2007-03-26 08:07 51°19.935 2°54.893 16.6 330 8.3 101900 78
2007-03-26 08:08 51°20.003 2°55.234 15.7 329 8.4 101900 78
2007-03-26 08:09 51°20.07 2°55.575 14.4 329 8.4 101890 78
2007-03-26 08:10 51°20.139 2°55.917 16.7 329 8.4 101890 78
2007-03-26 08:11 51°20.206 2°56.26 15.3 332 8.4 101890 78
2007-03-26 08:12 51°20.273 2°56.604 14.8 330 8.4 101900 78
2007-03-26 08:13 51°20.342 2°56.948 14.7 332 8.4 101900 78
2007-03-26 08:14 51°20.41 2°57.291 15.1 333 8.4 101900 78
2007-03-26 08:15 51°20.477 2°57.626 16.6 330 8.4 101900 78
2007-03-26 08:16 51°20.544 2°57.97 16.1 332 8.4 101910 77
2007-03-26 08:17 51°20.61 2°58.305 15.7 333 8.4 101900 77
2007-03-26 08:18 51°20.666 2°58.642 15.6 328 8.5 101890 77
2007-03-26 08:19 51°20.678 2°58.99 14.2 326 8.5 101890 76
2007-03-26 08:20 51°20.708 2°59.337 15.2 328 8.5 101900 76
2007-03-26 08:21 51°20.747 2°59.684 16 329 8.6 101900 76
2007-03-26 08:22 51°20.787 3°0.029 15.6 328 8.6 101900 75
2007-03-26 08:23 51°20.826 3°0.374 14.1 328 8.6 101900 76
2007-03-26 08:24 51°20.865 3°0.718 16.6 329 8.6 101900 76
2007-03-26 08:25 51°20.904 3°1.061 15.7 331 8.6 101900 76
2007-03-26 08:26 51°20.943 3°1.403 14.8 330 8.6 101900 76
2007-03-26 08:27 51°20.988 3°1.743 15.3 330 8.6 101910 76
2007-03-26 08:28 51°21.062 3°2.068 16.4 333 8.6 101910 76
2007-03-26 08:29 51°21.112 3°2.406 15.7 329 8.6 101890 75
2007-03-26 08:30 51°21.149 3°2.747 15 331 8.6 101890 75
2007-03-26 08:31 51°21.179 3°3.087 14.7 328 8.6 101880 75
2007-03-26 08:32 51°21.191 3°3.43 14.9 329 8.7 101880 75
2007-03-26 08:33 51°21.204 3°3.772 14.9 327 8.7 101890 75
2007-03-26 08:34 51°21.23 3°4.112 15.2 329 8.7 101880 75
2007-03-26 08:35 51°21.286 3°4.442 15.7 332 8.7 101890 74
2007-03-26 08:36 51°21.344 3°4.773 15.6 331 8.7 101890 74
2007-03-26 08:37 51°21.401 3°5.104 15.9 331 8.7 101890 74
2007-03-26 08:38 51°21.457 3°5.436 15.8 331 8.7 101890 74
2007-03-26 08:39 51°21.524 3°5.764 16.4 331 8.7 101900 74
2007-03-26 08:40 51°21.601 3°6.087 15.6 332 8.7 101890 74
2007-03-26 08:41 51°21.678 3°6.413 15.3 332 8.7 101890 74
2007-03-26 08:42 51°21.753 3°6.738 16.8 333 8.7 101890 73
2007-03-26 08:43 51°21.826 3°7.062 16.5 332 8.8 101890 73
2007-03-26 08:44 51°21.9 3°7.386 15.5 333 8.8 101900 73
2007-03-26 08:45 51°21.974 3°7.71 14.1 336 8.8 101890 73
2007-03-26 08:46 51°22.047 3°8.034 15.2 334 8.8 101900 74
2007-03-26 08:47 51°22.107 3°8.362 15.5 329 8.8 101890 73
2007-03-26 08:48 51°22.134 3°8.7 15.8 331 8.8 101900 74
2007-03-26 08:49 51°22.161 3°9.038 14.7 329 8.8 101890 73
2007-03-26 08:50 51°22.189 3°9.374 15 328 8.8 101900 73
2007-03-26 08:51 51°22.217 3°9.709 14.5 328 8.9 101900 72
2007-03-26 08:52 51°22.246 3°10.041 14.9 330 8.9 101900 73
2007-03-26 08:53 51°22.279 3°10.368 14.2 327 8.8 101900 73
2007-03-26 08:54 51°22.313 3°10.694 13.7 330 8.9 101900 73
2007-03-26 08:55 51°22.343 3°11.025 14.8 329 8.9 101890 73
2007-03-26 08:56 51°22.371 3°11.36 13.8 331 8.9 101900 73
2007-03-26 08:57 51°22.4 3°11.689 13.9 330 8.8 101900 73
2007-03-26 08:58 51°22.431 3°12.015 14.2 330 8.8 101900 73
2007-03-26 08:59 51°22.461 3°12.342 14.5 331 8.9 101890 73
2007-03-26 09:00 51°22.484 3°12.626 12.5 330 8.9 101920 73
2007-03-26 09:01 51°22.508 3°12.816 10.9 330 8.9 101920 73
2007-03-26 09:02 51°22.539 3°12.969 10 330 8.9 101920 72
2007-03-26 09:03 51°22.566 3°13.106 9.4 330 8.9 101920 73
2007-03-26 09:04 51°22.587 3°13.204 8.2 333 8.9 101930 73
2007-03-26 09:05 51°22.594 3°13.227 7.4 330 8.9 101930 73
2007-03-26 09:06 51°22.594 3°13.221 7 326 9 101930 73
2007-03-26 09:07 51°22.593 3°13.208 7 324 9 101930 73
2007-03-26 09:08 51°22.589 3°13.184 6.7 316 9 101930 73
2007-03-26 09:09 51°22.584 3°13.151 6.9 27 9.1 101930 73
2007-03-26 09:10 51°22.58 3°13.114 8 22 9.1 101930 73
2007-03-26 09:11 51°22.575 3°13.075 7.2 250 9.1 101930 73
2007-03-26 09:12 51°22.56 3°13.04 5.5 261 9.2 101920 73
2007-03-26 09:13 51°22.516 3°12.927 4.1 36 9.1 101910 73
2007-03-26 09:14 51°22.589 3°12.756 6.7 16 9.1 101930 73
2007-03-26 09:15 51°22.744 3°12.526 9.6 359 9 101880 73
2007-03-26 09:16 51°22.953 3°12.388 10.3 357 8.9 101870 74
2007-03-26 09:17 51°23.172 3°12.301 11.1 355 8.9 101870 74
2007-03-26 09:18 51°23.392 3°12.218 11 354 8.9 101860 75
2007-03-26 09:19 51°23.612 3°12.134 10.5 355 8.9 101870 75
2007-03-26 09:20 51°23.833 3°12.049 10 354 8.9 101870 76
2007-03-26 09:21 51°24.055 3°11.964 9.7 348 8.9 101870 77
2007-03-26 09:22 51°24.277 3°11.878 9.4 350 8.8 101870 78
2007-03-26 09:23 51°24.498 3°11.794 9.9 350 8.7 101870 79
2007-03-26 09:24 51°24.718 3°11.706 9.6 353 8.7 101870 79
2007-03-26 09:25 51°24.937 3°11.605 9.7 353 8.7 101860 79
2007-03-26 09:26 51°25.15 3°11.468 9.3 355 8.7 101860 79
2007-03-26 09:27 51°25.362 3°11.317 9 354 8.7 101870 79
2007-03-26 09:28 51°25.548 3°11.097 6.9 3 8.8 101870 79
2007-03-26 09:29 51°25.69 3°10.811 5.6 -999 8.8 101870 79
2007-03-26 09:30 51°25.805 3°10.492 6.1 4 8.8 101880 79
2007-03-26 09:31 51°25.934 3°10.182 4.9 -999 8.8 101870 79
2007-03-26 09:32 51°26.035 3°9.844 5.6 360 8.8 101870 79
2007-03-26 09:33 51°26.144 3°9.508 5.3 2 8.8 101870 79
2007-03-26 09:34 51°26.251 3°9.169 6.6 359 8.8 101870 80
2007-03-26 09:35 51°26.349 3°8.873 5.5 15 8.8 101890 80
2007-03-26 09:36 51°26.41 3°8.651 5.2 27 8.8 101910 81
2007-03-26 09:37 51°26.408 3°8.473 3.1 25 8.8 101920 81
2007-03-26 09:38 51°26.391 3°8.366 4 23 9 101910 82
2007-03-26 09:39 51°26.38 3°8.309 6.6 27 9.1 101910 79
2007-03-26 09:40 51°26.374 3°8.242 4.7 20 9.2 101910 81
2007-03-26 09:41 51°26.4 3°8.161 7.3 20 9.2 101900 79
2007-03-26 09:42 51°26.451 3°8.121 8.4 359 9.1 101890 79
2007-03-26 09:43 51°26.499 3°8.133 9.2 336 9 101890 79
2007-03-26 09:44 51°26.511 3°8.198 8.6 19 9 101890 79
2007-03-26 09:45 51°26.479 3°8.24 8.2 25 9.1 101890 79
2007-03-26 09:46 51°26.465 3°8.303 7.9 24 9.1 101890 79
2007-03-26 09:47 51°26.446 3°8.375 8.3 22 9.1 101890 78
2007-03-26 09:48 51°26.417 3°8.398 7.6 249 9.2 101900 78
2007-03-26 09:49 51°26.409 3°8.396 7.8 19 9.3 101910 78
2007-03-26 09:50 51°26.406 3°8.389 7 25 9.3 101910 78
2007-03-26 09:51 51°26.406 3°8.378 6.6 21 9.4 101910 78
2007-03-26 09:52 51°26.407 3°8.363 6.4 19 9.4 101910 77
2007-03-26 09:53 51°26.408 3°8.346 7.4 26 9.4 101910 77
2007-03-26 09:54 51°26.409 3°8.328 6.3 244 9.4 101910 76
2007-03-26 09:55 51°26.403 3°8.318 7 18 9.5 101910 76
2007-03-26 09:56 51°26.367 3°8.296 4.6 19 9.5 101910 76
2007-03-26 09:57 51°26.362 3°8.189 5.8 28 9.5 101910 76
2007-03-26 09:58 51°26.437 3°7.989 6.5 7 9.4 101900 76
2007-03-26 09:59 51°26.553 3°7.678 6.3 2 9.3 101900 76
2007-03-26 10:00 51°26.671 3°7.356 5.4 6 9.2 101900 77
2007-03-26 10:01 51°26.79 3°7.033 6 5 9.1 101900 78
2007-03-26 10:02 51°26.911 3°6.714 5.9 6 9.1 101890 78
2007-03-26 10:03 51°27.034 3°6.397 5.9 5 9.1 101890 78
2007-03-26 10:04 51°27.155 3°6.079 5.2 2 9.1 101890 78
2007-03-26 10:05 51°27.276 3°5.761 5.7 6 9.1 101900 78
2007-03-26 10:06 51°27.398 3°5.444 6 7 9.1 101890 78
2007-03-26 10:07 51°27.518 3°5.127 6.1 5 9.1 101880 78
2007-03-26 10:08 51°27.64 3°4.811 7.7 10 9.1 101890 78
2007-03-26 10:09 51°27.76 3°4.496 7.7 9 9.1 101880 77
2007-03-26 10:10 51°27.88 3°4.178 7.4 12 9.2 101880 76
2007-03-26 10:11 51°28.01 3°3.87 6.5 7 9.2 101880 76
2007-03-26 10:12 51°28.114 3°3.675 8.3 16 9.3 101890 76
2007-03-26 10:13 51°28.198 3°3.57 7.8 17 9.4 101890 75
2007-03-26 10:14 51°28.257 3°3.513 7.5 6 9.4 101880 74
2007-03-26 10:15 51°28.27 3°3.485 8.8 1 9.4 101880 74
2007-03-26 10:16 51°28.274 3°3.453 6.9 8 9.4 101880 74
2007-03-26 10:17 51°28.275 3°3.418 7.5 17 9.5 101890 74
2007-03-26 10:18 51°28.272 3°3.384 6.5 27 9.5 101890 73
2007-03-26 10:19 51°28.267 3°3.353 8.1 29 9.6 101880 73
2007-03-26 10:20 51°28.261 3°3.322 7.9 28 9.6 101890 73
2007-03-26 10:21 51°28.255 3°3.293 7.4 28 9.6 101880 74
2007-03-26 10:22 51°28.252 3°3.26 8.5 32 9.6 101880 73
2007-03-26 10:23 51°28.272 3°3.129 4.7 22 9.6 101880 74
2007-03-26 10:24 51°28.251 3°2.827 1 344 9.6 101890 73
2007-03-26 10:25 51°28.217 3°2.46 1.1 22 9.7 101890 74
2007-03-26 10:26 51°28.182 3°2.09 2.5 25 9.7 101890 73
2007-03-26 10:27 51°28.147 3°1.718 1.4 17 9.8 101890 73
2007-03-26 10:28 51°28.117 3°1.349 1 3 9.8 101890 73
2007-03-26 10:29 51°28.087 3°0.977 1.7 5 9.8 101890 73
2007-03-26 10:30 51°28.038 3°0.615 1.2 336 9.8 101890 73
2007-03-26 10:31 51°27.965 3°0.261 1.8 331 9.8 101890 74
2007-03-26 10:32 51°27.898 2°59.907 2.1 322 9.8 101900 74
2007-03-26 10:33 51°27.828 2°59.553 2.5 343 9.9 101900 75
2007-03-26 10:34 51°27.76 2°59.198 2.3 345 9.8 101900 76
2007-03-26 10:35 51°27.695 2°58.845 1.5 328 9.8 101900 77
2007-03-26 10:36 51°27.627 2°58.493 1.7 333 9.7 101900 77
2007-03-26 10:37 51°27.559 2°58.141 2.1 349 9.7 101900 78
2007-03-26 10:38 51°27.493 2°57.787 1.1 334 9.7 101890 78
2007-03-26 10:39 51°27.427 2°57.436 1.2 347 9.6 101890 78
2007-03-26 10:40 51°27.361 2°57.089 1.9 353 9.7 101890 79
2007-03-26 10:41 51°27.292 2°56.741 1.5 348 9.6 101890 78
2007-03-26 10:42 51°27.224 2°56.392 1.5 345 9.6 101890 79
2007-03-26 10:43 51°27.157 2°56.04 2 346 9.6 101890 79
2007-03-26 10:44 51°27.088 2°55.687 1.6 349 9.6 101890 79
2007-03-26 10:45 51°27.018 2°55.341 1.6 341 9.6 101890 79
2007-03-26 10:46 51°26.947 2°54.996 2.1 347 9.6 101880 79
2007-03-26 10:47 51°26.875 2°54.647 2.3 5 9.6 101890 79
2007-03-26 10:48 51°26.806 2°54.291 1.6 320 9.6 101880 79
2007-03-26 10:49 51°26.733 2°53.939 2.2 346 9.6 101890 79
2007-03-26 10:50 51°26.667 2°53.588 1.9 350 9.6 101880 79
2007-03-26 10:51 51°26.597 2°53.242 2.3 354 9.5 101890 79
2007-03-26 10:52 51°26.528 2°52.894 1.7 351 9.5 101890 79
2007-03-26 10:53 51°26.459 2°52.546 3.2 359 9.5 101870 79
2007-03-26 10:54 51°26.41 2°52.187 3.7 359 9.4 101880 80
2007-03-26 10:55 51°26.366 2°51.825 2.6 2 9.4 101870 80
2007-03-26 10:56 51°26.321 2°51.463 2.4 349 9.3 101870 80
2007-03-26 10:57 51°26.276 2°51.099 3.1 357 9.3 101880 81
2007-03-26 10:58 51°26.23 2°50.733 3.6 350 9.3 101880 81
2007-03-26 10:59 51°26.187 2°50.372 2.6 341 9.2 101880 82
2007-03-26 11:00 51°26.141 2°50.011 3.7 356 9.2 101870 83
2007-03-26 11:01 51°26.106 2°49.641 4.1 356 9.1 101870 83
2007-03-26 11:02 51°26.075 2°49.273 3.6 354 9.1 101880 84
2007-03-26 11:03 51°26.048 2°48.925 2.4 2 9.1 101870 84
2007-03-26 11:04 51°26.015 2°48.709 3.8 27 9.1 101880 85
2007-03-26 11:05 51°26.014 2°48.568 3.9 29 9.1 101870 84
2007-03-26 11:06 51°26.015 2°48.511 5.6 25 9.1 101860 84
2007-03-26 11:07 51°26.004 2°48.492 5.3 27 9.2 101870 85
2007-03-26 11:08 51°25.994 2°48.473 5.4 33 9.2 101870 85
2007-03-26 11:09 51°25.983 2°48.452 5.5 31 9.2 101860 85
2007-03-26 11:10 51°25.972 2°48.431 5.7 32 9.2 101870 85
2007-03-26 11:11 51°25.961 2°48.408 5.4 30 9.1 101860 85
2007-03-26 11:12 51°25.948 2°48.386 5.8 32 9.1 101870 85
2007-03-26 11:13 51°25.938 2°48.362 5.5 31 9.1 101870 85
2007-03-26 11:14 51°25.929 2°48.291 2.6 25 9.2 101860 85
2007-03-26 11:15 51°25.847 2°48.197 2 263 9.2 101870 85
2007-03-26 11:16 51°25.706 2°47.946 2 321 9.3 101860 86
2007-03-26 11:17 51°25.557 2°47.668 2.4 27 9.5 101860 85
2007-03-26 11:18 51°25.409 2°47.386 1.4 318 9.6 101870 85
2007-03-26 11:19 51°25.258 2°47.107 2.2 20 9.7 101860 85
2007-03-26 11:20 51°25.102 2°46.826 1.8 23 9.7 101860 84
2007-03-26 11:21 51°24.949 2°46.545 2.1 317 9.7 101860 83
2007-03-26 11:22 51°24.804 2°46.256 1.9 352 9.8 101860 83
2007-03-26 11:23 51°24.688 2°45.932 2.1 355 9.7 101860 82
2007-03-26 11:24 51°24.565 2°45.612 2 329 9.7 101860 82
2007-03-26 11:25 51°24.435 2°45.295 1.2 332 9.6 101860 82
2007-03-26 11:26 51°24.31 2°44.973 1.7 327 9.6 101860 82
2007-03-26 11:27 51°24.174 2°44.666 0.8 335 9.6 101850 83
2007-03-26 11:28 51°24.036 2°44.357 1.5 341 9.7 101860 83
2007-03-26 11:29 51°23.896 2°44.051 1.4 317 9.7 101860 82
2007-03-26 11:30 51°23.757 2°43.741 1.4 325 9.8 101860 82
2007-03-26 11:31 51°23.615 2°43.438 0.8 340 9.8 101860 81
2007-03-26 11:32 51°23.475 2°43.128 1.1 343 9.8 101860 81
2007-03-26 11:33 51°23.339 2°42.814 1.1 340 9.9 101850 81
2007-03-26 11:34 51°23.196 2°42.503 1.3 325 10 101850 80
2007-03-26 11:35 51°23.057 2°42.195 1.4 25 10 101850 80
2007-03-26 11:36 51°22.917 2°41.887 1.5 2 10 101850 80
2007-03-26 11:37 51°22.777 2°41.584 1 345 10.1 101850 80
2007-03-26 11:38 51°22.639 2°41.278 1.2 322 10.1 101840 79
2007-03-26 11:39 51°22.5 2°40.973 1 316 10.1 101840 79
2007-03-26 11:40 51°22.361 2°40.669 1.4 337 10.1 101840 79
2007-03-26 11:41 51°22.219 2°40.371 1.2 352 10.1 101850 79
2007-03-26 11:42 51°22.075 2°40.067 1.4 341 10.1 101840 79
2007-03-26 11:43 51°21.935 2°39.759 1.8 355 10.1 101840 79
2007-03-26 11:44 51°21.795 2°39.453 1.6 325 10 101840 79
2007-03-26 11:45 51°21.653 2°39.149 1.4 356 10 101830 79
2007-03-26 11:46 51°21.518 2°38.838 1.8 350 9.9 101830 79
2007-03-26 11:47 51°21.376 2°38.529 1.5 353 9.8 101830 80
2007-03-26 11:48 51°21.238 2°38.219 1.9 350 9.8 101840 80
2007-03-26 11:49 51°21.097 2°37.913 1.5 348 9.7 101830 81
2007-03-26 11:50 51°20.958 2°37.601 2.1 347 9.7 101830 81
2007-03-26 11:51 51°20.819 2°37.293 2.8 355 9.6 101830 81
2007-03-26 11:52 51°20.671 2°36.997 2.3 342 9.6 101840 82
2007-03-26 11:53 51°20.462 2°36.849 3.8 27 9.6 101840 83
2007-03-26 11:54 51°20.234 2°36.804 4.6 26 9.7 101840 83
2007-03-26 11:55 51°20.013 2°36.715 2.1 20 9.8 101830 83
2007-03-26 11:56 51°19.907 2°36.393 4.2 2 9.8 101830 82
2007-03-26 11:57 51°19.879 2°36.015 4.9 356 9.6 101830 82
2007-03-26 11:58 51°19.876 2°35.631 5.6 1 9.5 101820 83
2007-03-26 11:59 51°19.876 2°35.244 5.8 1 9.4 101810 84
2007-03-26 12:00 51°19.878 2°34.856 6.7 359 9.3 101820 84
2007-03-26 12:01 51°19.881 2°34.465 6.4 358 9.2 101820 85
2007-03-26 12:02 51°19.879 2°34.075 6.5 358 9.2 101830 85
2007-03-26 12:03 51°19.878 2°33.684 5.7 356 9.2 101820 85
2007-03-26 12:04 51°19.876 2°33.296 6.4 359 9.2 101820 85
2007-03-26 12:05 51°19.872 2°32.906 5.6 358 9.2 101810 85
2007-03-26 12:06 51°19.879 2°32.519 6.8 2 9.2 101820 85
2007-03-26 12:07 51°19.89 2°32.135 5.8 1 9.2 101820 85
2007-03-26 12:08 51°19.94 2°31.761 8.5 1 9.2 101810 85
2007-03-26 12:09 51°20.013 2°31.399 9.3 359 9.2 101800 85
2007-03-26 12:10 51°20.107 2°31.053 8.7 354 9.2 101800 85
2007-03-26 12:11 51°20.192 2°30.699 7.4 358 9.2 101800 86
2007-03-26 12:12 51°20.164 2°30.352 2.2 37 9.1 101820 86
2007-03-26 12:13 51°20.089 2°30.163 3.7 32 9.2 101830 87
2007-03-26 12:14 51°20.053 2°29.984 4.8 39 9.2 101820 86
2007-03-26 12:15 51°20.036 2°29.869 7.4 35 9.3 101810 86
2007-03-26 12:16 51°20.026 2°29.843 6.8 39 9.3 101810 86
2007-03-26 12:17 51°20.016 2°29.832 6.7 40 9.2 101810 86
2007-03-26 12:18 51°20.008 2°29.807 7.5 39 9.2 101810 86
2007-03-26 12:19 51°19.999 2°29.774 7.5 40 9.2 101810 85
2007-03-26 12:20 51°19.988 2°29.735 6.4 35 9.2 101810 85
2007-03-26 12:21 51°19.979 2°29.692 6.7 34 9.3 101810 85
2007-03-26 12:22 51°19.97 2°29.646 7.2 29 9.3 101790 85
2007-03-26 12:23 51°19.968 2°29.582 6 27 9.3 101800 85
2007-03-26 12:24 51°19.958 2°29.477 4.2 25 9.3 101810 85
2007-03-26 12:25 51°19.908 2°29.411 4.2 266 9.4 101810 85
2007-03-26 12:26 51°19.865 2°29.438 7.4 23 9.5 101810 85
2007-03-26 12:27 51°19.822 2°29.583 9.8 26 9.6 101780 85
2007-03-26 12:28 51°19.691 2°29.812 9.3 24 9.5 101800 85
2007-03-26 12:29 51°19.575 2°30.062 11.8 25 9.5 101770 84
2007-03-26 12:30 51°19.468 2°30.325 10.6 22 9.5 101770 84
2007-03-26 12:31 51°19.354 2°30.593 10.9 23 9.5 101770 84
2007-03-26 12:32 51°19.226 2°30.855 10.3 28 9.5 101760 84
2007-03-26 12:33 51°19.093 2°31.115 10.4 22 9.6 101750 84
2007-03-26 12:34 51°18.96 2°31.377 10.6 22 9.6 101760 84
2007-03-26 12:35 51°18.828 2°31.64 9.9 25 9.6 101770 84
2007-03-26 12:36 51°18.699 2°31.906 9.4 22 9.5 101750 84
2007-03-26 12:37 51°18.569 2°32.17 9.8 27 9.5 101760 84
2007-03-26 12:38 51°18.443 2°32.437 8.9 21 9.6 101760 85
2007-03-26 12:39 51°18.316 2°32.7 9.5 21 9.6 101750 85
2007-03-26 12:40 51°18.204 2°32.973 10.9 24 9.6 101740 85
2007-03-26 12:41 51°18.093 2°33.247 11.4 25 9.6 101750 84
2007-03-26 12:42 51°17.983 2°33.521 10.4 23 9.6 101740 84
2007-03-26 12:43 51°17.871 2°33.792 11 26 9.6 101740 84
2007-03-26 12:44 51°17.761 2°34.064 10.3 28 9.6 101740 84
2007-03-26 12:45 51°17.652 2°34.335 10.8 23 9.6 101740 84
2007-03-26 12:46 51°17.542 2°34.609 10.2 26 9.6 101750 84
2007-03-26 12:47 51°17.424 2°34.866 10.5 24 9.6 101730 83
2007-03-26 12:48 51°17.305 2°35.127 10.3 28 9.7 101740 83
2007-03-26 12:49 51°17.181 2°35.388 10.1 23 9.7 101740 82
2007-03-26 12:50 51°17.055 2°35.65 11 25 9.8 101740 81
2007-03-26 12:51 51°16.927 2°35.912 11.4 24 9.8 101740 81
2007-03-26 12:52 51°16.801 2°36.175 10.4 20 9.9 101740 80
2007-03-26 12:53 51°16.702 2°36.454 10.2 28 9.9 101730 79
2007-03-26 12:54 51°16.665 2°36.622 7.7 27 9.9 101730 79
2007-03-26 12:55 51°16.636 2°36.7 7.3 25 9.9 101750 79
2007-03-26 12:56 51°16.62 2°36.741 7.1 21 10 101740 79
2007-03-26 12:57 51°16.614 2°36.752 6.1 316 10 101750 79
2007-03-26 12:58 51°16.603 2°36.742 6.2 24 10 101760 79
2007-03-26 12:59 51°16.59 2°36.723 5.7 25 10 101750 79
2007-03-26 13:00 51°16.575 2°36.696 5.8 25 10 101750 79
2007-03-26 13:01 51°16.559 2°36.665 3.3 21 10 101750 80
2007-03-26 13:02 51°16.542 2°36.63 5.1 19 10 101750 80
2007-03-26 13:03 51°16.526 2°36.594 6.2 253 10.1 101750 80
2007-03-26 13:04 51°16.502 2°36.59 7 25 10.1 101740 80
2007-03-26 13:05 51°16.431 2°36.706 8.7 25 10.1 101730 79
2007-03-26 13:06 51°16.258 2°36.899 8.3 28 10.1 101740 79
2007-03-26 13:07 51°16.085 2°37.113 7.3 26 10.1 101730 79
2007-03-26 13:08 51°15.902 2°37.306 8 21 10.1 101720 79
2007-03-26 13:09 51°15.717 2°37.494 9.3 20 10 101730 79
2007-03-26 13:10 51°15.525 2°37.665 8.7 20 10 101730 79
2007-03-26 13:11 51°15.324 2°37.823 7.9 24 10 101730 79
2007-03-26 13:12 51°15.122 2°37.976 8.7 24 10 101730 79
2007-03-26 13:13 51°14.919 2°38.138 9.3 26 10 101720 79
2007-03-26 13:14 51°14.727 2°38.322 9.1 19 10 101710 78
2007-03-26 13:15 51°14.533 2°38.501 8.1 21 10.1 101720 78
2007-03-26 13:16 51°14.331 2°38.649 7.5 24 10.1 101720 78
2007-03-26 13:17 51°14.113 2°38.743 7.4 27 10.1 101720 79
2007-03-26 13:18 51°13.883 2°38.78 6.6 27 10.1 101730 78
2007-03-26 13:19 51°13.65 2°38.736 3.9 22 10.1 101720 78
2007-03-26 13:20 51°13.434 2°38.56 2.9 19 10.2 101730 78
2007-03-26 13:21 51°13.217 2°38.379 2.8 27 10.3 101730 78
2007-03-26 13:22 51°13 2°38.202 2.6 25 10.4 101730 78
2007-03-26 13:23 51°12.779 2°38.034 3.3 25 10.5 101730 77
2007-03-26 13:24 51°12.558 2°37.872 3 317 10.6 101730 77
2007-03-26 13:25 51°12.337 2°37.71 3.3 20 10.6 101730 76
2007-03-26 13:26 51°12.116 2°37.554 3.3 315 10.7 101720 76
2007-03-26 13:27 51°11.893 2°37.393 3.4 21 10.7 101730 75
2007-03-26 13:28 51°11.673 2°37.221 3 20 10.7 101730 75
2007-03-26 13:29 51°11.463 2°37.021 2.2 315 10.7 101730 74
2007-03-26 13:30 51°11.252 2°36.822 3.1 26 10.8 101720 74
2007-03-26 13:31 51°11.043 2°36.628 3.2 322 10.9 101720 74
2007-03-26 13:32 51°10.833 2°36.433 3.1 28 10.9 101720 74
2007-03-26 13:33 51°10.626 2°36.235 2.6 315 10.9 101730 74
2007-03-26 13:34 51°10.418 2°36.042 2.8 20 10.9 101720 74
2007-03-26 13:35 51°10.212 2°35.852 2.8 26 11 101720 73
2007-03-26 13:36 51°9.988 2°35.796 6.9 27 11 101720 73
2007-03-26 13:37 51°9.84 2°36.007 9.8 318 10.9 101700 72
2007-03-26 13:38 51°9.841 2°36.308 10.9 326 10.8 101700 73
2007-03-26 13:39 51°9.935 2°36.58 11.3 328 10.7 101690 73
2007-03-26 13:40 51°10.023 2°36.86 11 326 10.6 101690 73
2007-03-26 13:41 51°10.086 2°37.158 11.3 324 10.6 101700 73
2007-03-26 13:42 51°10.156 2°37.451 11.3 325 10.6 101690 73
2007-03-26 13:43 51°10.225 2°37.746 11.7 325 10.5 101690 74
2007-03-26 13:44 51°10.285 2°38.047 11.7 325 10.4 101690 74
2007-03-26 13:45 51°10.346 2°38.346 11.9 325 10.5 101680 74
2007-03-26 13:46 51°10.408 2°38.646 11.9 327 10.5 101690 73
2007-03-26 13:47 51°10.47 2°38.947 10.4 327 10.6 101690 73
2007-03-26 13:48 51°10.533 2°39.25 11.9 326 10.6 101690 73
2007-03-26 13:49 51°10.596 2°39.55 12.1 326 10.6 101690 73
2007-03-26 13:50 51°10.66 2°39.851 11.8 324 10.7 101680 72
2007-03-26 13:51 51°10.723 2°40.153 12.4 326 10.7 101680 71
2007-03-26 13:52 51°10.787 2°40.455 11.8 325 10.7 101690 71
2007-03-26 13:53 51°10.851 2°40.757 12.2 326 10.7 101690 72
2007-03-26 13:54 51°10.915 2°41.06 10 328 10.7 101680 71
2007-03-26 13:55 51°10.98 2°41.367 11.3 326 10.7 101690 72
2007-03-26 13:56 51°11.045 2°41.668 10.6 323 10.7 101690 72
2007-03-26 13:57 51°11.079 2°41.856 8.7 322 10.7 101690 72
2007-03-26 13:58 51°11.1 2°41.97 7.2 319 10.8 101690 71
2007-03-26 13:59 51°11.109 2°42.019 5.5 322 10.8 101700 71
2007-03-26 14:00 51°11.11 2°42.02 4.6 326 10.8 101700 71
2007-03-26 14:01 51°11.108 2°42.012 4.9 327 10.9 101700 71
2007-03-26 14:02 51°11.102 2°41.998 5 327 10.9 101700 70
2007-03-26 14:03 51°11.094 2°41.981 4.4 323 10.9 101700 70
2007-03-26 14:04 51°11.082 2°41.961 4.9 315 10.9 101700 71
2007-03-26 14:05 51°11.075 2°41.961 7.6 318 10.8 101700 71
2007-03-26 14:06 51°11.119 2°42.166 10.4 320 10.8 101680 71
2007-03-26 14:07 51°11.151 2°42.476 11.4 320 10.7 101680 72
2007-03-26 14:08 51°11.186 2°42.792 10.4 321 10.7 101680 73
2007-03-26 14:09 51°11.232 2°43.107 9.5 322 10.7 101690 73
2007-03-26 14:10 51°11.28 2°43.421 10 321 10.6 101690 74
2007-03-26 14:11 51°11.325 2°43.732 10.1 322 10.5 101680 75
2007-03-26 14:12 51°11.371 2°44.043 10.1 321 10.4 101680 76
2007-03-26 14:13 51°11.415 2°44.352 10.3 321 10.4 101680 76
2007-03-26 14:14 51°11.46 2°44.66 10.5 322 10.4 101690 76
2007-03-26 14:15 51°11.505 2°44.967 10.7 320 10.4 101680 76
2007-03-26 14:16 51°11.55 2°45.274 10.8 322 10.5 101680 76
2007-03-26 14:17 51°11.593 2°45.584 9.1 326 10.5 101690 76
2007-03-26 14:18 51°11.64 2°45.894 10.7 320 10.8 101670 74
2007-03-26 14:19 51°11.721 2°46.181 10.6 326 10.9 101670 72
2007-03-26 14:20 51°11.808 2°46.465 10.4 327 10.8 101660 73
2007-03-26 14:21 51°11.874 2°46.766 9.4 325 11 101680 72
2007-03-26 14:22 51°11.934 2°47.07 9.3 326 11.3 101680 69
2007-03-26 14:23 51°11.997 2°47.376 9.3 326 11.3 101670 68
2007-03-26 14:24 51°12.069 2°47.678 10.4 328 11.3 101670 69
2007-03-26 14:25 51°12.156 2°47.972 8.6 330 11.2 101680 70
2007-03-26 14:26 51°12.257 2°48.255 8.8 328 11.1 101670 71
2007-03-26 14:27 51°12.36 2°48.537 8.8 326 11.3 101670 70
2007-03-26 14:28 51°12.461 2°48.821 8.7 330 11.2 101680 70
2007-03-26 14:29 51°12.561 2°49.107 8.1 340 11.1 101680 71
2007-03-26 14:30 51°12.656 2°49.397 8 329 11.4 101680 69
2007-03-26 14:31 51°12.753 2°49.685 9.6 342 11.6 101670 67
2007-03-26 14:32 51°12.851 2°49.97 6.9 333 12.6 101660 59
2007-03-26 14:33 51°12.954 2°50.255 8.7 339 12.9 101670 59
2007-03-26 14:34 51°13.056 2°50.541 10.3 340 13.4 101670 51
2007-03-26 14:35 51°13.158 2°50.825 8.8 333 13.9 101670 51
2007-03-26 14:36 51°13.273 2°51.098 9.5 335 13.3 101680 57
2007-03-26 14:37 51°13.388 2°51.369 10.5 338 13.3 101660 54
2007-03-26 14:38 51°13.5 2°51.638 10.9 337 13.9 101640 50
2007-03-26 14:39 51°13.608 2°51.923 11.9 340 14.3 101650 50
2007-03-26 14:40 51°13.715 2°52.196 11.3 338 14.7 101640 45
2007-03-26 14:41 51°13.821 2°52.476 12.1 342 14.9 101650 43
2007-03-26 14:42 51°13.929 2°52.756 10 348 15.2 101640 43
2007-03-26 14:43 51°14.037 2°53.037 9.9 341 15.1 101640 44
2007-03-26 14:44 51°14.152 2°53.317 10.8 347 15.2 101640 42
2007-03-26 14:45 51°14.279 2°53.573 11.9 346 15.3 101640 44
2007-03-26 14:46 51°14.424 2°53.821 10.7 343 15.4 101640 43
2007-03-26 14:47 51°14.592 2°54.022 11.4 343 15.2 101650 46
2007-03-26 14:48 51°14.801 2°54.09 9.3 351 15.1 101640 44
2007-03-26 14:49 51°15.004 2°54.092 9.3 355 15.3 101660 43
2007-03-26 14:50 51°15.218 2°54.103 8.5 353 15.2 101650 43
2007-03-26 14:51 51°15.432 2°54.119 8.9 346 14.9 101650 46
2007-03-26 14:52 51°15.646 2°54.135 8.6 336 14.2 101650 52
2007-03-26 14:53 51°15.86 2°54.153 9.3 334 13.3 101650 57
2007-03-26 14:54 51°16.049 2°54.168 4.7 344 12.8 101660 58
2007-03-26 14:55 51°16.133 2°54.24 5.2 345 12.8 101660 57
2007-03-26 14:56 51°16.187 2°54.31 5.3 349 12.9 101660 56
2007-03-26 14:57 51°16.247 2°54.357 4.9 353 13 101660 55
2007-03-26 14:58 51°16.251 2°54.372 3.6 339 13 101660 56
2007-03-26 14:59 51°16.244 2°54.382 2.7 320 13 101660 57
2007-03-26 15:00 51°16.233 2°54.389 2.3 25 12.9 101670 59
2007-03-26 15:01 51°16.22 2°54.392 2.2 20 12.8 101660 59
2007-03-26 15:02 51°16.207 2°54.393 2.9 334 12.7 101660 60
2007-03-26 15:03 51°16.191 2°54.41 6.2 321 12.6 101660 60
2007-03-26 15:04 51°16.102 2°54.444 7.4 27 12.9 101650 54
2007-03-26 15:05 51°15.906 2°54.473 8.5 25 13.4 101650 52
2007-03-26 15:06 51°15.681 2°54.508 9.7 22 13.8 101640 49
2007-03-26 15:07 51°15.499 2°54.497 6.3 23 14.1 101650 49
2007-03-26 15:08 51°15.403 2°54.458 5.8 27 14.3 101650 50
2007-03-26 15:09 51°15.334 2°54.473 5.8 20 14.4 101650 48
2007-03-26 15:10 51°15.27 2°54.502 6 26 14.5 101650 46
2007-03-26 15:11 51°15.205 2°54.531 5.4 23 14.7 101650 47
2007-03-26 15:12 51°15.141 2°54.563 5.7 24 14.7 101640 48
2007-03-26 15:13 51°15.076 2°54.597 5.4 27 14.5 101650 49
2007-03-26 15:14 51°15.013 2°54.634 7.2 318 14.6 101650 47
2007-03-26 15:15 51°14.952 2°54.67 6.7 316 14.8 101640 46
2007-03-26 15:16 51°14.894 2°54.709 7.1 27 15.1 101640 44
2007-03-26 15:17 51°14.789 2°54.774 9.7 318 15.2 101640 44
2007-03-26 15:18 51°14.631 2°54.878 10.7 322 15.3 101630 45
2007-03-26 15:19 51°14.456 2°55.006 12 323 15.5 101620 43
2007-03-26 15:20 51°14.292 2°55.206 11.2 325 15.7 101630 42
2007-03-26 15:21 51°14.135 2°55.406 10 323 16 101630 42
2007-03-26 15:22 51°14.01 2°55.495 8.6 327 16.1 101640 41
2007-03-26 15:23 51°13.908 2°55.568 7.1 316 16.2 101630 40
2007-03-26 15:24 51°13.818 2°55.641 5.8 330 16.3 101640 40
2007-03-26 15:25 51°13.744 2°55.734 7.4 331 16.3 101640 40
2007-03-26 15:26 51°13.686 2°55.838 5.3 326 16.3 101640 41
2007-03-26 15:27 51°13.643 2°55.931 6 322 16.3 101640 40
2007-03-26 15:28 51°13.609 2°56.01 6 321 16.4 101640 39
2007-03-26 15:29 51°13.599 2°56.094 4.1 326 16.4 101640 40
2007-03-26 15:30 51°13.602 2°56.094 4.2 332 16.4 101640 40